カタログに戻る

STARLINK-3847

運用中通信VLEO
NORAD 52333·PAYLOAD·🇺🇸 United States

打ち上げ Apr 29, 2022 から Cape Canaveral Space Force Station

Loading…

次のパス (今後24時間)

TLE

最新Source: CelesTrak SupGP

元期: Sep 15, 2026, 01:10 UTC

1 52333C 22045C   26258.04909722 -.00021790  00000+0 -70084-3 0  2585
2 52333  53.1590  65.3183 0001237  71.4903 256.2244 15.31707486    12

AllMySatでSTARLINK-3847をリアルタイム追跡

Download on the App Store